| time (UTC) | temp F | wind direction | speed knots | gust knots | rain 1hr in | rain 24hr in | rain mn in | humidity % | barometer mb |
| 20260506015404 | 69 | 196 | 1.7 | 10.4 | 0.00 | 7.60 | 7.60 | 58 | 1008.0 |
| 20260506014803 | 69 | 196 | 1.7 | 7.8 | 0.00 | 7.60 | 7.60 | 59 | 1008.1 |
| 20260506014203 | 69 | 196 | 0.9 | 7.8 | 0.00 | 7.60 | 7.60 | 58 | 1008.0 |
| 20260506013604 | 69 | 197 | 0.9 | 7.0 | 0.00 | 7.60 | 7.60 | 58 | 1008.1 |
| 20260506013003 | 69 | 196 | 0.9 | 7.0 | 0.00 | 7.60 | 7.60 | 57 | 1008.2 |
| 20260506012403 | 69 | 196 | 0.9 | 5.2 | 0.00 | 7.60 | 7.60 | 57 | 1007.9 |
| 20260506011804 | 70 | 196 | 2.6 | 12.2 | 0.00 | 7.60 | 7.60 | 57 | 1007.7 |
| 20260506011203 | 70 | 195 | 4.3 | 12.2 | 0.00 | 7.60 | 7.60 | 56 | 1007.2 |
| 20260506010603 | 70 | 197 | 3.5 | 12.2 | 0.00 | 7.60 | 7.60 | 56 | 1007.2 |
| 20260506010003 | 70 | 199 | 4.3 | 16.5 | 0.00 | 7.60 | 7.60 | 56 | 1007.1 |
| 20260506005404 | 70 | 201 | 5.2 | 16.5 | 0.00 | 7.60 | 7.60 | 56 | 1006.9 |
| 20260506004804 | 70 | 195 | 5.2 | 13.0 | 0.00 | 7.60 | 7.60 | 56 | 1006.8 |
| 20260506004203 | 70 | 193 | 5.2 | 12.2 | 0.00 | 7.60 | 7.60 | 56 | 1006.5 |
| 20260506003603 | 70 | 201 | 6.1 | 12.2 | 0.00 | 7.60 | 7.60 | 55 | 1006.6 |
| 20260506003004 | 70 | 196 | 5.2 | 14.8 | 0.00 | 7.60 | 7.60 | 55 | 1006.4 |
| 20260506002403 | 71 | 193 | 4.3 | 12.2 | 0.00 | 7.60 | 7.60 | 55 | 1006.3 |
| 20260506001803 | 71 | 196 | 4.3 | 12.2 | 0.00 | 7.60 | 7.60 | 55 | 1006.1 |
| 20260506001204 | 72 | 195 | 5.2 | 13.0 | 0.00 | 7.60 | 7.60 | 54 | 1006.0 |
| 20260506000604 | 72 | 195 | 5.2 | 13.0 | 0.00 | 7.60 | 7.60 | 54 | 1005.9 |
| 20260506000004 | 72 | 189 | 5.2 | 13.0 | 0.00 | 7.60 | 7.60 | 54 | 1005.8 |
| 20260505235403 | 72 | 190 | 5.2 | 11.3 | 0.00 | 7.60 | 7.60 | 53 | 1005.6 |
| 20260505234804 | 72 | 197 | 6.1 | 14.8 | 0.00 | 7.60 | 7.60 | 54 | 1005.6 |
| 20260505234204 | 73 | 196 | 6.1 | 17.4 | 0.00 | 7.60 | 7.60 | 54 | 1005.4 |
| 20260505233603 | 73 | 192 | 6.1 | 17.4 | 0.00 | 7.60 | 7.60 | 53 | 1005.3 |
| 20260505233003 | 73 | 193 | 6.1 | 15.6 | 0.00 | 7.60 | 7.60 | 53 | 1005.4 |
| 20260505232404 | 73 | 195 | 5.2 | 13.0 | 0.00 | 7.60 | 7.60 | 53 | 1005.1 |
| 20260505231804 | 74 | 195 | 6.1 | 14.8 | 0.00 | 7.60 | 7.60 | 53 | 1005.0 |
| 20260505231203 | 74 | 196 | 6.1 | 14.8 | 0.00 | 7.60 | 7.60 | 52 | 1004.8 |
| 20260505230603 | 74 | 200 | 6.1 | 13.9 | 0.00 | 7.60 | 7.60 | 52 | 1004.8 |
| 20260505230004 | 74 | 199 | 6.1 | 14.8 | 0.00 | 7.60 | 7.60 | 51 | 1004.8 |
| 20260505225404 | 75 | 194 | 6.1 | 13.9 | 0.00 | 7.60 | 7.60 | 50 | 1004.6 |
| 20260505224803 | 75 | 196 | 7.0 | 17.4 | 0.00 | 7.60 | 7.60 | 50 | 1004.5 |
| 20260505224203 | 75 | 195 | 8.7 | 17.4 | 0.00 | 7.60 | 7.60 | 50 | 1004.6 |
| 20260505223604 | 74 | 185 | 7.0 | 16.5 | 0.00 | 7.60 | 7.60 | 52 | 1004.5 |
| 20260505223003 | 74 | 179 | 6.1 | 14.8 | 0.00 | 7.60 | 7.60 | 53 | 1004.3 |
| 20260505222403 | 73 | 189 | 6.1 | 14.8 | 0.00 | 7.60 | 7.60 | 53 | 1004.2 |
| 20260505221804 | 73 | 190 | 7.0 | 16.5 | 0.00 | 7.60 | 7.60 | 54 | 1004.1 |
| 20260505221203 | 73 | 189 | 7.0 | 16.5 | 0.00 | 7.60 | 7.60 | 54 | 1004.1 |
| 20260505220603 | 73 | 193 | 6.1 | 14.8 | 0.00 | 7.60 | 7.60 | 55 | 1004.1 |
| 20260505220003 | 72 | 189 | 6.1 | 14.8 | 0.00 | 7.60 | 7.60 | 56 | 1004.1 |
| 20260505215404 | 72 | 189 | 7.0 | 15.6 | 0.00 | 7.60 | 7.60 | 55 | 1004.1 |
| 20260505214804 | 72 | 191 | 7.0 | 15.6 | 0.00 | 7.60 | 7.60 | 55 | 1003.8 |
| 20260505214203 | 73 | 195 | 6.1 | 13.9 | 0.00 | 7.60 | 7.60 | 55 | 1003.9 |
| 20260505213604 | 72 | 183 | 4.3 | 13.9 | 0.00 | 7.60 | 7.60 | 56 | 1003.8 |
| 20260505213004 | 72 | 169 | 4.3 | 13.0 | 0.00 | 7.60 | 7.60 | 56 | 1003.8 |
| 20260505212403 | 72 | 171 | 5.2 | 13.0 | 0.00 | 7.60 | 7.60 | 56 | 1003.7 |
| 20260505211803 | 71 | 181 | 4.3 | 11.3 | 0.00 | 7.60 | 7.60 | 57 | 1003.6 |
| 20260505211204 | 71 | 165 | 5.2 | 18.2 | 0.00 | 7.60 | 7.60 | 57 | 1003.5 |
| 20260505210604 | 72 | 175 | 6.1 | 18.2 | 0.00 | 7.60 | 7.60 | 55 | 1003.6 |
| 20260505210003 | 72 | 179 | 6.1 | 17.4 | 0.00 | 7.60 | 7.60 | 56 | 1003.5 |
| 20260505205403 | 72 | 169 | 6.1 | 11.3 | 0.00 | 7.60 | 7.60 | 55 | 1003.4 |
| 20260505204804 | 73 | 162 | 6.1 | 14.8 | 0.00 | 7.60 | 7.60 | 53 | 1003.3 |
| 20260505204203 | 73 | 169 | 6.1 | 15.6 | 0.00 | 7.60 | 7.60 | 55 | 1003.4 |
| 20260505203603 | 73 | 179 | 5.2 | 12.2 | 7.60 | 7.60 | 7.60 | 55 | 1003.3 |
| 20260505203003 | 72 | 168 | 5.2 | 12.2 | 7.60 | 7.60 | 7.60 | 54 | 1003.5 |
| 20260505202404 | 73 | 169 | 5.2 | 12.2 | 7.60 | 7.60 | 7.60 | 53 | 1003.6 |
| 20260505201804 | 73 | 175 | 4.3 | 13.0 | 7.60 | 7.60 | 7.60 | 53 | 1003.6 |
| 20260505201203 | 73 | 163 | 6.1 | 14.8 | 7.60 | 7.60 | 7.60 | 53 | 1003.6 |
| 20260505200603 | 74 | 162 | 6.1 | 13.0 | 7.60 | 7.60 | 7.60 | 52 | 1003.5 |
| 20260505200004 | 74 | 162 | 6.1 | 14.8 | 7.60 | 7.60 | 7.60 | 52 | 1003.7 |
| 20260505195403 | 74 | 164 | 7.0 | 14.8 | 7.60 | 7.60 | 7.60 | 52 | 1003.6 |
| 20260505194804 | 75 | 161 | 6.1 | 13.0 | 7.60 | 7.60 | 7.60 | 52 | 1003.6 |